Dewpoint
71 71 71 71 71 71 72 72 72 72 72 72 71 71 71 71 71 71 71 71 70 69 68 69 70 70 70 70 70 70 70 69 69 69 69 69 68 68 68 68 69 69 69 69 68 68 68 67 67 67 67 66 66 61 61 62 63 64 63 64 65 64
70 71 71 71 71 71 71 71 70 70 71 70 71 70 70 70 71 68 70 69 68 68 67 68 69 70 70 70 70 70 69 69 69 69 69 68 68 69 68 69 69 69 69 68 69 64 65 67 66 66 66 66 63 61 60 62 63 63 64 64 65 66
70 70 70 70 71 71 70 69 69 68 69 70 70 69 67 68 66 67 67 68 68 67 67 68 68 70 70 70 70 70 69 69 69 69 69 69 69 69 69 69 69 69 69 69 65 63 61 60 61 65 65 61 60 60 59 60 63 63 63 64 64 67
69 70 70 70 70 70 69 68 67 67 66 66 67 67 66 66 66 66 67 67 67 68 66 66 69 69 69 68 69 69 68 68 69 69 69 69 69 69 69 69 69 69 69 68 63 62 62 60 59 59 60 60 59 59 59 60 63 63 63 66 65 68
69 69 69 69 69 69 69 68 66 66 66 65 65 65 65 65 65 65 65 66 66 67 66 65 66 66 66 66 66 67 67 66 68 68 69 67 68 68 68 67 67 68 65 64 63 61 61 60 60 59 59 59 59 57 58 62 62 63 64 65 66 68
69 69 69 69 69 69 68 67 66 66 66 65 64 65 65 64 65 65 65 66 67 66 65 65 65 65 65 65 65 66 66 66 65 66 68 67 66 66 67 67 67 66 66 65 63 62 61 62 60 60 60 59 58 57 57 61 62 63 64 65 66 68
68 68 68 68 69 68 67 67 66 66 65 64 65 64 64 64 64 64 65 66 65 65 65 65 65 65 64 65 65 65 65 64 64 64 66 65 65 66 66 66 65 66 65 65 64 64 63 62 62 61 60 59 58 56 58 62 61 63 64 65 66 68
68 68 68 68 68 67 67 66 66 68 66 67 66 65 65 64 66 65 66 67 67 65 65 65 65 65 65 64 64 64 64 64 64 64 65 65 64 65 65 65 65 65 65 65 64 62 61 60 60 60 60 59 58 56 59 62 61 62 64 65 66 68
68 68 68 68 67 67 67 66 67 66 65 68 65 65 65 66 65 66 66 67 68 65 64 65 65 65 65 64 64 64 63 64 64 64 64 63 63 63 63 64 64 64 63 62 62 62 61 62 61 60 59 59 58 57 59 61 61 62 64 65 65 67
67 67 68 67 67 67 67 66 66 65 65 68 64 64 66 65 65 66 65 65 66 65 64 65 65 65 65 65 65 64 64 64 64 64 64 63 64 63 63 64 64 64 64 63 63 63 63 62 61 59 59 59 58 58 60 61 60 61 63 65 65 66
67 68 67 67 66 67 67 66 66 65 66 66 64 65 66 65 65 65 64 64 65 66 64 64 64 64 65 65 64 64 64 64 64 64 63 63 64 62 63 63 63 63 63 63 64 64 63 62 61 59 57 56 57 57 58 61 60 61 63 64 65 66
67 67 66 66 67 67 67 66 67 66 66 66 66 65 65 65 66 65 65 64 64 65 64 64 63 64 64 64 64 64 64 63 62 63 63 63 63 63 62 64 64 65 64 63 64 64 63 62 60 59 57 56 60 57 56 60 60 61 63 64 65 65
66 66 66 66 66 66 66 67 66 66 66 67 66 65 65 65 65 65 65 65 65 65 65 64 63 63 65 63 64 63 63 63 63 64 63 64 63 63 62 63 62 63 62 62 62 63 63 62 60 59 58 60 61 61 58 56 60 61 62 63 64 65
66 65 65 65 65 66 66 66 66 66 67 65 65 64 65 64 65 65 65 65 65 65 65 64 63 63 64 63 63 63 63 63 63 63 62 63 63 62 62 62 62 62 63 62 62 62 62 61 61 60 62 61 61 61 60 59 59 61 62 62 62 63
65 64 66 65 66 65 65 66 66 66 66 65 64 64 63 64 64 65 65 65 65 65 65 64 64 64 64 63 63 63 64 64 64 63 62 62 63 61 61 61 62 62 61 61 61 60 60 60 61 63 62 61 61 61 61 60 60 60 62 62 62 62
64 64 64 65 64 64 65 65 65 67 65 64 63 63 63 64 64 65 65 65 64 65 65 64 65 64 63 63 63 62 63 64 64 62 62 62 63 62 62 61 61 62 61 61 60 60 60 60 62 63 62 62 61 62 61 61 60 59 60 61 61 62
63 63 63 64 63 63 64 64 64 66 65 63 62 62 62 62 63 64 64 64 64 66 64 64 65 64 63 63 63 63 63 64 64 62 62 63 63 64 63 62 61 63 61 61 62 62 60 60 61 62 62 62 62 61 62 61 61 61 60 59 60 62
61 61 61 61 61 62 63 64 64 64 65 63 62 61 62 62 62 62 63 63 63 65 65 64 64 63 63 63 63 63 63 63 63 63 62 62 64 63 63 62 61 61 62 60 60 60 60 60 62 62 61 62 62 62 62 62 61 62 60 60 60 60
60 60 60 59 59 60 60 59 59 61 60 58 59 59 60 60 60 60 61 61 63 64 64 63 63 63 62 63 62 62 62 62 62 62 61 61 61 63 63 62 62 61 62 61 60 61 61 60 61 60 61 61 62 62 62 62 62 62 62 61 61 61
59 59 59 58 58 56 55 55 55 56 57 58 57 57 56 57 57 58 59 58 58 59 63 63 63 62 62 63 61 61 62 62 61 61 60 60 60 61 62 63 62 62 60 60 60 61 61 60 59 60 60 60 61 62 63 62 61 61 60 60 59 59
59 59 57 55 54 54 53 53 54 55 54 55 55 55 55 55 55 56 55 54 55 56 58 61 62 62 61 63 60 60 61 62 61 60 60 60 60 60 61 61 61 60 61 61 60 61 62 59 57 56 57 58 59 61 63 63 62 60 60 60 59 59
59 58 55 55 54 53 54 53 53 54 55 55 54 54 54 55 56 57 57 57 57 56 56 57 58 58 57 59 60 60 59 61 61 60 60 60 60 62 61 60 62 61 61 60 59 60 60 58 56 55 55 55 57 59 60 61 62 62 61 61 61 59
59 57 55 55 54 53 54 53 54 54 55 55 55 55 53 55 56 55 55 57 57 56 56 56 56 57 56 58 59 58 58 59 60 61 60 59 59 59 59 60 60 59 58 59 59 60 61 59 56 56 55 54 53 54 55 57 59 62 63 61 60 60
58 56 55 56 56 55 55 55 55 56 56 54 53 56 54 54 54 54 55 55 55 55 54 54 54 53 52 54 54 54 53 54 58 60 59 58 58 58 58 58 58 58 58 58 59 60 61 61 59 57 54 53 53 53 51 52 56 60 62 62 63 63
58 57 57 58 57 57 56 55 55 55 54 53 53 52 51 52 55 57 54 54 54 55 55 55 55 54 53 52 53 52 51 52 54 56 58 58 57 58 58 58 58 58 56 56 57 59 60 61 61 59 57 55 52 50 51 53 56 57 60 59 61 63
57 57 57 57 57 55 55 54 52 51 51 51 51 50 50 51 52 53 53 53 54 55 54 53 53 52 53 52 51 51 50 51 52 53 53 52 52 52 53 57 58 58 58 57 57 57 57 59 59 59 58 57 54 52 53 55 53 50 58 59 60 61
58 56 56 56 55 55 53 53 52 51 51 51 50 49 50 52 52 52 54 53 53 54 54 53 53 52 51 51 51 51 51 51 52 53 54 53 53 54 54 54 54 56 57 58 56 55 57 58 60 59 58 57 58 58 56 53 52 52 52 56 58 58
57 57 56 55 54 54 52 52 51 51 52 51 50 51 52 52 53 54 52 52 53 53 52 51 50 50 51 51 50 50 51 52 52 53 54 52 53 53 53 54 54 53 54 55 56 57 57 58 57 58 59 57 57 57 57 57 54 53 52 52 54 56
57 56 56 55 54 53 52 51 51 52 52 52 52 52 54 54 53 53 52 50 50 49 49 49 50 49 50 51 53 50 50 50 51 52 54 53 53 53 53 53 53 53 52 53 53 52 50 49 52 56 58 57 57 57 56 56 56 56 52 49 51 52
56 56 56 55 54 53 52 52 52 52 52 52 53 53 53 52 51 51 49 48 48 49 49 50 50 51 50 50 51 52 51 50 51 53 54 52 52 53 53 53 53 52 52 52 52 51 49 48 49 50 54 55 56 55 52 50 51 52 52 51 49 47
56 56 55 54 53 52 51 51 53 53 52 52 52 52 51 51 51 49 48 48 48 49 49 50 51 50 51 53 53 54 53 53 54 56 54 53 53 53 52 52 52 52 52 51 50 50 51 50 49 49 49 49 49 48 47 46 46 48 47 45 46 46
56 55 55 54 53 52 52 52 54 53 52 51 52 51 50 51 51 49 48 48 49 49 49 50 49 49 49 50 52 51 52 50 51 51 52 52 52 52 52 51 51 51 50 50 50 50 49 49 49 49 49 49 49 49 49 48 49 48 48 47 46 45
56 54 54 54 53 52 53 52 53 52 51 51 51 50 51 51 50 50 49 49 49 48 49 49 48 49 48 49 51 48 48 49 50 51 50 51 50 51 51 51 51 51 50 49 49 49 48 47 48 47 47 47 47 47 48 49 50 49 48 47 45 43
56 54 53 54 53 52 53 53 53 52 51 52 50 50 51 51 51 50 50 49 48 49 49 49 50 49 49 50 50 50 50 49 49 49 50 50 50 51 51 50 50 49 49 48 49 49 48 47 48 48 47 47 47 47 47 48 48 48 47 46 45 44
56 55 53 53 53 52 53 54 53 52 52 51 50 51 51 52 51 51 51 49 48 50 49 50 50 49 51 51 51 50 49 49 49 49 49 50 52 50 50 50 50 50 49 48 49 49 47 47 48 46 46 46 47 47 46 47 46 46 47 47 47 45
57 57 57 55 55 53 53 54 54 52 52 52 52 51 52 52 51 52 51 50 50 50 50 51 50 51 51 51 51 50 50 49 49 49 50 49 50 50 49 50 49 49 49 52 49 48 48 48 47 47 45 44 45 45 46 46 45 44 45 46 46 46
56 57 57 57 55 54 53 55 53 52 53 52 52 51 52 52 52 52 52 51 51 50 51 52 51 52 52 51 51 49 49 50 49 50 49 50 50 49 49 50 49 48 49 50 50 48 48 47 47 46 45 44 44 45 45 45 44 44 44 44 44 45